Location: La Brionne
(46.1728°N, 1.7849°E)
Time: 01:55:58
(UTC+00:00)

Cosmos 2219 Rocket - Pass Details

Date: 29 October 2021
Orbit: 827 x 848 km, 71.0° (Epoch: 26 November)

Event Time Altitude Azimuth Distance (km) Brightness Sun altitude
Rises 18:31:00 0° 201° (SSW) 3,354 5.6 -19.2°
Reaches altitude 10° 18:33:24 10° 201° (SSW) 2,426 4.8 -19.6°
Maximum altitude 18:38:58 82° 115° (ESE) 845 2.0 -20.6°
Enters shadow 18:43:38 15° 28° (NNE) 2,091 4.0 -21.4°
